Regional Weather Roundup
Issued by NWS Charleston, SC

Current Version | Previous Version | Text Only | Print | Product List | Glossary Off
Versions: 1 2 3 4 5 6 7 8 9 10 11 12 13 14 15 16 17 18 19 20 21 22 23 24 25 26 27 28 29 30 31 32 33 34 35 36 37 38 39 40 41 42 43 44 45 46 47 48 49 50

000
ASUS42 KCHS 300012
RWRCHS

REGIONAL WEATHER ROUNDUP
NATIONAL WEATHER SERVICE CHARLESTON SC
800 PM EDT WED JUL 29 2015

NOTE: "FAIR" INDICATES FEW OR NO CLOUDS BELOW 12,000 FEET WITH NO
SIGNIFICANT WEATHER AND/OR OBSTRUCTIONS TO VISIBILITY.

NOT ALL STATIONS ARE QUALITY CONTROLLED BY THE NATIONAL
WEATHER SERVICE. USE DATA WITH CAUTION...ESPECIALLY
DEWPOINT OBSERVATIONS.

SCZ027-030-031-034>040-042>050-300100-
...SOUTHEAST SOUTH CAROLINA...

CITY           SKY/WX    TMP DP  RH WIND       PRES   REMARKS
N CHARLESTON   PTCLDY    84  71  65 SE12      29.94R
6HR MIN TEMP:  84; 6HR MAX TEMP:  93; 6HR PCP: TRACE;

WATERFRONT PRK   N/A     85  78  79 E10       29.91R HX  97
MOUNT PLEASANT LGT RAIN  82  75  78 E6        29.94R
JOHNS ISLAND   FAIR      82  77  83 E7        29.94R HX  91
PINOPOLIS      NOT AVBL
MONCKS CORNER  FAIR      86  73  66 SE3       29.93R HX  93
SUMMERVILLE    FAIR      88  77  70 SE6       29.93R HX 100
BEAUFORT MCAS  PTCLDY    85  77  77 SE7       29.94R HX  95
6HR MIN TEMP:  85; 6HR MAX TEMP:  95;

BEAUFORT ARPT  FAIR      82  77  83 E7        29.94R HX  91
HILTON HEAD IS PTCLDY    82  77  83 E6        29.95R HX  91
WALTERBORO     PTCLDY    90  75  62 SE10      29.93R HX 100
ALLENDALE      FAIR      90  73  58 CALM      29.90R HX  98

...SOUTHERN MIDLANDS AND PEE DEE...

CITY           SKY/WX    TMP DP  RH WIND       PRES   REMARKS
GEORGETOWN     NOT AVBL
KINGSTREE      NOT AVBL
ORANGEBURG     PTCLDY    91  66  43 SE3       29.92R HX  93
6HR MIN TEMP:  91; 6HR MAX TEMP:  97;

BARNWELL       FAIR      91  73  55 CALM      29.92R HX 100
AIKEN          FAIR      88  68  51 CALM      29.96R HX  91
MANNING        FAIR      88  68  51 SE6       29.92R HX  91
COLUMBIA       MOCLDY    91  71  51 NW7       29.91R HX  97
6HR MIN TEMP:  91; 6HR MAX TEMP:  99;

SUMTER         PTCLDY    91  66  43 E7        29.90R HX  94
6HR MIN TEMP:  91; 6HR MAX TEMP:  98;

FLORENCE       CLEAR     91  66  43 E5        29.92R HX  93
6HR MIN TEMP:  91; 6HR MAX TEMP:  96;

MYRTLE BEACH   NOT AVBL
N MYRTLE BEACH PTCLDY    83  71  67 E10       29.95R
6HR MIN TEMP:  83; 6HR MAX TEMP:  88;


$$

GAZ063-065-086>088-099>101-113>116-118-119-134>141-150-300100-
...SOUTHEAST GEORGIA...

CITY           SKY/WX    TMP DP  RH WIND       PRES   REMARKS
SAVANNAH ARPT  MOCLDY    85  72  65 SE15      29.93R HX  91
6HR MIN TEMP:  85; 6HR MAX TEMP:  95;

HUNTER AAF     PTCLDY    84  75  73 SE10      29.92R HX  92
6HR MIN TEMP:  84; 6HR MAX TEMP:  92;

FORT STEWART   MOCLDY    85  73  66 SE8       29.91R HX  92
6HR MIN TEMP:  85; 6HR MAX TEMP:  96;

STATESBORO     PTCLDY    87  76  70 CALM      29.92R HX  97
SYLVANIA       MOCLDY    91  74  58 CALM      29.92R HX 100
CLAXTON        CLOUDY    90  72  55 CALM      29.92R HX  96

...CSRA...CENTRAL AND FAR SOUTHEAST GEORGIA...

CITY           SKY/WX    TMP DP  RH WIND       PRES   REMARKS
THOMSON        PTCLDY    81  81  98 CALM      29.99R HX  93
AUGUSTA-BUSH   PTCLDY    90  74  59 W6        29.91R HX  99
6HR MIN TEMP:  82; 6HR MAX TEMP:  94;

AUGUSTA-DANIEL PTCLDY    90  72  55 CALM      29.94R HX  97
SWAINSBORO     FAIR      86  75  70 CALM      29.94R HX  95
VIDALIA        HVY RAIN  88  79  74 CALM      29.93R HX 102
EASTMAN        FAIR      87  79  76 CALM      29.94S HX 101
HAZLEHURST     FAIR      89  78  69 CALM      29.92R HX 103
ALMA           CLOUDY    90  76  63 SE7       29.92R HX 101
6HR MIN TEMP:  83; 6HR MAX TEMP:  94; 6HR PCP: TRACE;

WAYCROSS       PTCLDY    92  79  65 S7        29.93R HX 109
JESUP          FAIR      88  70  55 SE5       29.94R HX  92
BAXLEY         CLOUDY    88  73  62 CALM      29.92R HX  96
BRUNSWICK      PTCLDY    84  75  74 SE7       29.95S HX  92
SAINT SIMONS   CLEAR     82  75  79 E8        29.95R
6HR MIN TEMP:  82; 6HR MAX TEMP:  89;


$$

SCZ027-028-034-036>038-045-046-048>050-GAZ119-141-300100-
...LAKE AND SUPPLEMENTAL COASTAL OBSERVATIONS...

STATION/POSITION TIME  TEMP    WIND        PRES    WAVE   SWELL
                       AIR SEA DIR/SP/G            HT/PER HT/PER/DIR
                 (UTC) (F)     (DEG/KT/KT) (MB)    (FT/S) (FT/S/D)
UPR LAKE MARION  NOT AVBL
WINYAH BAY       2245   83      90/ 13     1013.0
LAKE MURRAY      2300   88     290/  4/  7 1012.2F
ACE BASIN NERRS  NOT AVBL
FORT PULASKI     2300   85 86  100/  7/  9 1014.0
SAPELO ISLAND    2300   87     110/  5     1013.0S

$$

ANZ835-935-AMZ111-154-330-350-352-354-370-450-454-472-300100-
...C-MAN AND BUOY OBSERVATIONS...

STATION/POSITION TIME  TEMP    WIND        PRES    WAVE   SWELL
                       AIR SEA DIR/SP/G            HT/PER HT/PER/DIR
                 (UTC) (F)     (DEG/KT/KT) (MB)    (FT/S) (FT/S/D)
BUOY 41004       2350   84 85   60/ 12/ 16 1012.5R   3/ 5   2/ 6
BUOY 41008       2350   82 82  100/  6/  8 1014.3R   2/ 4   2/ 90/ 5
FOLLY BEACH CMAN 2300   82      90/ 15/ 18 1013.6R
CAPERS NEARSHORE 2308   83     100/ 12/ 16 1013.6R
FRIPP NEARSHORE  2300   83     100/ 14/ 16 1012.8R


STATION/POSITION TIME  TEMP    WIND        PRES    WAVE   SWELL
                       AIR SEA DIR/SP/G            HT/PER HT/PER/DIR
                 (UTC) (F)     (DEG/KT/KT) (MB)    (FT/S) (FT/S/D)
5E ST. MARYS GA  2321      82                N/A     2/ 4
FRYING PAN BUOY  2350   83 84   40/ 14/ 16 1013.4S   3/ 6   2/120/10
BUOY 41025       2350   82 85  100/ 16/ 19 1014.3F   4/ 6   2/ 90/10
CAPE LOOKOUT NC  2300   81      60/ 14/ 16 1014.0F
BUOY 41002       2350   83 82  220/ 14/ 16 1014.9R   5/ 7   3/190/ 7
BUOY 41010       2320   77 84  220/ 23/ 31 1012.7S
ST AUGUSTINE FL  0000   81 82  160/  2/  3 1015.2R


$$


USA.gov is the U.S. government's official web portal to all federal, state and local government web resources and services.